#timestamp,LO_Frequency,Hit 
1501880415.7,286047004.5,N
1501880435.5,286047003.5,N
1501880455.4,286047001.8,N
1501880475.2,286047004.0,N
1501880495.0,286047001.5,N
1501880495.9,286047001.5,N
1501880515.7,286047003.1,N
1501880535.6,286047006.0,N
1501880555.4,286047002.0,N
1501880575.2,286047002.6,N
1501880595.1,286047002.1,N
1501880596.0,286047002.1,N
1501880615.8,286047003.9,N
1501880635.6,286047000.2,N
1501880655.5,286046999.1,N
1501880675.3,286046999.1,N
1501880695.1,286047001.5,N
1501880715.9,286047001.5,N
1501880735.7,286047000.0,N
1501880755.5,286047001.5,N
1501880775.4,286047001.2,N
1501880795.2,286046996.5,N
1501880815.0,286046996.9,N
1501880815.9,286046996.9,N
1501880835.8,286046997.1,N
1501880855.6,286046999.5,N
1501880875.4,286047000.8,N
1501880895.2,286047002.0,N
1501880915.1,286047003.6,N
1501880916.0,286047003.6,N
1501880935.8,286047003.4,N
1501880955.7,286047007.4,P
1501880975.5,286047005.4,N
1501880995.3,286047004.5,N
1501881015.2,286047004.8,N
1501881035.9,286047005.0,N
1501881055.7,286047004.5,N
1501881075.5,286047004.8,N
1501881095.4,286047004.8,P
1501881115.2,286047002.3,P
1501881135.1,286047002.6,N
1501881136.0,286047002.6,N
1501881155.8,286046999.8,N
1501881175.9,286047000.9,N
1501881195.7,286047000.7,N
1501881215.5,286047002.4,N
1501881235.4,286047001.4,N
1501881255.2,286047001.6,N
1501881275.0,286047002.8,N
1501881275.9,286047002.8,N
1501881295.8,286047002.3,N
1501881315.6,286046998.7,N
1501881335.4,286046999.2,N
1501881355.3,286046997.0,N
1501881375.1,286046998.5,N
1501881376.0,286046998.5,N
1501881395.8,286046998.2,N
1501881415.6,286047000.5,N
1501881435.5,286046998.9,N
1501881455.3,286046998.6,N
1501881475.1,286046996.9,N
1501881495.9,286046993.5,N
1501881515.7,286046998.2,N
1501881535.5,286046998.4,N
1501881555.4,286046999.6,N
1501881575.2,286047000.8,N
1501881595.0,286046997.0,N
1501881595.9,286046997.0,N
1501881615.8,286046996.7,N
1501881635.6,286046998.2,N
1501881655.4,286046998.9,N
1501881675.3,286047000.3,N
1501881695.1,286047000.7,N
1501881696.0,286047000.7,N
1501881715.8,286047000.1,N
1501881735.7,286046999.8,N
1501881755.5,286046999.8,N
1501881775.3,286047001.4,N
1501881795.1,286047003.5,N
1501881815.9,286047002.0,N
1501881835.7,286047002.6,N
1501881855.5,286047003.9,N
1501881875.4,286047003.2,N
1501881895.2,286047007.6,P
1501881915.1,286047003.7,N
1501881916.0,286047003.7,N
1501881935.8,286047004.2,N
1501881955.6,286047005.0,N
1501881975.4,286047005.5,N
1501881995.3,286047005.6,N
1501882015.1,286047006.0,N
1501882035.8,286047006.0,N
1501882055.7,286047004.6,N
1501882075.5,286047007.4,P
1501882095.3,286046997.1,N
1501882115.2,286046994.0,N
1501882135.0,286046995.9,N
1501882135.9,286046995.9,N
1501882155.7,286046995.0,N
1501882175.6,286046998.8,N
1501882195.4,286047002.3,N
1501882215.2,286047003.9,N
1501882235.1,286047004.4,N
1501882236.0,286047004.4,N
1501882255.8,286047004.3,N
1501882275.6,286047006.0,N
1501882295.5,286047005.4,N
1501882315.3,286047003.8,N
1501882335.1,286047001.7,N
1501882355.9,286047001.4,N
1501882375.7,286047003.2,N
1501882395.5,286047005.7,N
1501882415.3,286047003.8,N
1501882435.2,286047000.4,N
1501882455.0,286047002.3,N
1501882455.9,286047002.3,N
1501882475.7,286047004.2,N
1501882495.6,286047003.6,N
1501882515.4,286047005.6,N
1501882535.2,286047004.4,N
1501882555.1,286047001.7,N
1501882556.0,286047001.7,N
1501882575.8,286047004.9,N
1501882595.6,286047003.3,N
1501882615.5,286047003.3,N
1501882635.3,286047003.4,N
1501882655.1,286047003.4,N
1501882675.9,286047007.4,N
1501882695.7,286047007.2,P
1501882715.5,286047003.5,N
1501882735.4,286047004.9,N
1501882755.2,286047004.6,N
1501882775.0,286047004.8,P
1501882775.9,286047004.8,P
1501882795.8,286046998.2,P
1501882815.6,286046999.6,N
1501882835.4,286046996.6,N
1501882855.3,286046997.4,N
1501882875.1,286046997.5,N
1501882876.0,286046997.5,N
1501882895.8,286046998.1,N
1501882915.7,286046999.4,N
1501882935.5,286047000.6,N
1501882955.3,286047001.2,N
1501882975.2,286046999.1,N
1501882995.9,286046996.6,N
1501883015.7,286046997.6,N
1501883035.6,286046995.3,N
1501883055.4,286046997.5,N
1501883075.2,286046997.3,N
1501883095.0,286046997.5,N
1501883095.9,286046997.5,N
1501883115.9,286046996.8,N
1501883135.7,286046999.5,N
1501883155.5,286046998.3,N
1501883175.3,286046998.1,N
1501883195.2,286047002.2,N
1501883215.0,286047002.7,N
1501883215.9,286047002.7,N
1501883235.7,286047002.8,N
1501883255.6,286047002.5,N
1501883275.4,286047001.6,N
1501883295.2,286047004.1,N
1501883315.1,286047004.4,N
1501883316.0,286047004.4,N
1501883335.8,286047001.5,N
1501883355.6,286047002.0,N
1501883375.5,286047001.4,N
1501883395.3,286047004.0,N
1501883415.1,286047002.2,N
1501883435.9,286047004.4,N
1501883455.7,286047001.7,N
1501883475.5,286047000.6,N
1501883495.4,286046998.3,N
1501883515.2,286046998.2,N
1501883535.0,286046998.7,N
1501883535.9,286046998.7,N
1501883555.8,286046999.1,N
1501883575.6,286046999.7,N
1501883595.4,286046999.9,N
1501883615.2,286047000.6,N
1501883635.1,286047000.6,N
1501883636.0,286047000.6,N
1501883655.8,286047003.2,N
1501883675.6,286047004.2,N
1501883695.5,286047000.5,N
1501883715.3,286047002.4,N
1501883735.1,286047004.2,N
1501883755.9,286047007.0,P
1501883775.7,286047004.7,N
1501883795.5,286047008.0,P
1501883815.4,286047008.6,P
1501883835.2,286047003.0,N
1501883855.0,286047007.1,P
1501883856.0,286047007.1,P
1501883875.8,286046996.8,P
1501883895.6,286046995.6,N
1501883915.5,286046995.5,N
1501883935.3,286046994.2,N
1501883955.1,286046994.2,N
1501883975.8,286046994.1,N
1501883995.7,286046991.8,N
